Stations météo

Publicité
Lulea/Kallax, Suède (2186): Température de l'air & dewpoint: 17.07.2018 19:00:00 - 23.07.2018 19:00:00 (CEST)Lulea/Kallax, Suède (2186): Vitesse du vent & gusts: 17.07.2018 19:00:00 - 23.07.2018 19:00:00 (CEST)Lulea/Kallax, Suède (2186): Direction du vent: 17.07.2018 19:00:00 - 23.07.2018 19:00:00 (CEST)Lulea/Kallax, Suède (2186): reduced air pressure: 17.07.2018 19:00:00 - 23.07.2018 19:00:00 (CEST)Lulea/Kallax, Suède (2186): visibility: 17.07.2018 19:00:00 - 23.07.2018 19:00:00 (CEST)Lulea/Kallax, Suède (2186): Quantités de précipitations: 17.07.2018 19:00:00 - 23.07.2018 19:00:00 (CEST)
Date & Time tt [°C] td [°C] ff [km/h] ff [knt] fx [km/h] fx [knt] dd ppp [hPa] vv [km] rr [mm]
23.07.2018 19:00:00 24,8 16,4 5 3 18 10 SW 1009,9 10 0,0
23.07.2018 18:00:00 24,7 16,4 9 5 18 10 W 1009,6 10 0,0
23.07.2018 17:00:00 23,3 18,2 5 3 11 6 W 1009,4 10 0,0
23.07.2018 16:00:00 23,5 18,6 9 5 25 14 SW 1009,2 10 0,0
23.07.2018 15:00:00 22,9 18,7 15 8 32 18 S 1008,7 10 0,0
23.07.2018 14:00:00 25,5 18,2 16 9 25 14 S 1008,6 10 0,0
23.07.2018 13:00:00 25,2 18,4 18 10 25 14 S 1008,3 10 0,0
23.07.2018 12:00:00 25,0 18,7 15 8 22 12 S 1008,1 10 0,0
23.07.2018 11:00:00 25,0 17,5 11 6 25 14 S 1007,7 10 0,0
23.07.2018 10:00:00 24,2 17,7 4 2 14 8 - 1007,1 10 0,0
23.07.2018 09:00:00 22,8 17,5 4 2 11 6 - 1006,8 10 0,0
23.07.2018 08:00:00 21,6 17,6 8 4 22 12 WSW 1006,6 10 0,0
23.07.2018 07:00:00 20,6 17,6 9 5 14 8 WSW 1006,2 10 0,0
23.07.2018 06:00:00 20,5 17,9 8 4 11 6 SSW 1005,6 10 0,0
23.07.2018 05:00:00 19,5 18,7 4 2 11 6 SW 1005,3 10 0,0
23.07.2018 04:00:00 19,3 18,8 0 0 7 4 N 1005,1 10 0,0
23.07.2018 03:00:00 19,3 18,6 0 0 4 2 N 1005,0 10 0,0
23.07.2018 02:00:00 19,8 19,0 0 0 7 4 N 1004,9 10 0,0
23.07.2018 01:00:00 20,1 19,1 0 0 7 4 N 1004,7 10 0,0
23.07.2018 00:00:00 20,6 18,9 0 0 14 8 N 1004,3 10 0,0
22.07.2018 23:00:00 20,9 19,2 5 3 14 8 S 1004,1 10 0,0
22.07.2018 22:00:00 20,8 19,3 4 2 11 6 SSW 1004,1 10 0,0
22.07.2018 21:00:00 20,9 19,0 9 5 18 10 S 1003,7 10 0,0
22.07.2018 20:00:00 21,7 18,7 5 3 25 14 SSW 1003,5 10 0,0
22.07.2018 19:00:00 21,9 18,5 5 3 14 8 SW 1003,7 10 0,0
22.07.2018 18:00:00 21,7 19,1 11 6 14 8 S 1003,2 10 0,0
22.07.2018 17:00:00 21,3 19,0 9 5 18 10 SSW 1003,0 10 0,0
22.07.2018 16:00:00 21,9 18,7 9 5 18 10 S 1003,1 10 0,0
22.07.2018 15:00:00 22,8 18,8 9 5 18 10 SE 1003,0 10 0,0
22.07.2018 14:00:00 22,6 18,2 5 3 11 6 NNE 1002,7 10 0,0
22.07.2018 13:00:00 22,3 19,3 4 2 11 6 - 1002,3 10 0,0
22.07.2018 12:00:00 21,0 18,9 5 3 11 6 N 1003,1 10 0,0
22.07.2018 11:00:00 20,3 19,0 2 1 11 6 - 1003,1 10 0,0
22.07.2018 10:00:00 20,2 18,9 8 4 14 8 NNW 1003,4 10 0,0
22.07.2018 09:00:00 20,2 18,9 5 3 18 10 NNW 1003,5 10 0,0
22.07.2018 08:00:00 20,6 19,6 9 5 14 8 NNW 1002,7 9 0,0
22.07.2018 07:00:00 19,3 18,6 5 3 11 6 N 1003,0 10 0,0
22.07.2018 06:00:00 18,9 18,1 4 2 7 4 N 1003,2 10 0,0
22.07.2018 05:00:00 19,0 18,0 2 1 7 4 - 1003,1 10 1,0
22.07.2018 04:00:00 19,4 18,4 0 0 11 6 N 1003,4 10 0,8
22.07.2018 03:00:00 19,2 18,2 0 0 11 6 N 1003,6 10 0,0
22.07.2018 02:00:00 19,6 18,6 8 4 11 6 NE 1003,8 10 4,0
22.07.2018 01:00:00 20,4 19,6 4 2 11 6 - 1004,1 8 2,0
22.07.2018 00:00:00 20,8 19,3 2 1 4 2 SSE 1004,3 5 4,0
21.07.2018 23:00:00 21,9 18,7 2 1 7 4 - 1004,8 10 0,0
21.07.2018 22:00:00 21,9 18,7 2 1 11 6 - 1005,1 10 0,0
21.07.2018 21:00:00 22,6 18,6 8 4 14 8 E 1005,3 10 0,0
21.07.2018 20:00:00 22,5 17,8 5 3 11 6 E 1005,1 10 0,0
21.07.2018 19:00:00 23,2 18,1 8 4 14 8 ESE 1005,3 10 0,0
21.07.2018 18:00:00 23,5 17,5 8 4 18 10 ESE 1005,9 10 0,0
21.07.2018 17:00:00 24,2 16,7 13 7 18 10 SE 1006,2 10 0,0
21.07.2018 16:00:00 23,9 17,2 13 7 22 12 SE 1006,6 10 0,0
21.07.2018 15:00:00 24,2 17,2 15 8 22 12 SSE 1006,8 10 0,0
21.07.2018 14:00:00 24,7 17,7 16 9 25 14 SE 1007,1 10 0,0
21.07.2018 13:00:00 24,4 17,6 13 7 25 14 E 1007,5 10 0,0
21.07.2018 12:00:00 24,9 18,1 16 9 22 12 SE 1007,9 10 0,0
21.07.2018 11:00:00 24,7 18,9 15 8 22 12 SE 1008,3 10 0,0
21.07.2018 10:00:00 24,5 18,4 15 8 22 12 SSE 1008,4 10 0,0
21.07.2018 09:00:00 24,5 18,2 11 6 22 12 SSE 1008,3 10 0,0
21.07.2018 08:00:00 24,5 18,9 15 8 18 10 SE 1008,5 10 0,0
21.07.2018 07:00:00 21,9 17,3 5 3 11 6 NE 1008,8 10 0,0
21.07.2018 06:00:00 19,6 14,6 9 5 14 8 NNW 1008,9 10 0,0
21.07.2018 05:00:00 19,2 14,7 8 4 14 8 N 1009,0 10 0,0
21.07.2018 04:00:00 18,1 16,1 9 5 14 8 N 1009,2 10 0,0
21.07.2018 03:00:00 18,0 15,8 5 3 11 6 N 1009,6 10 0,0
21.07.2018 02:00:00 17,6 15,6 8 4 11 6 N 1009,9 10 0,0
21.07.2018 01:00:00 18,5 15,9 11 6 14 8 NW 1010,3 10 0,0
21.07.2018 00:00:00 20,6 14,9 2 1 7 4 - 1010,6 10 0,0
20.07.2018 23:00:00 21,1 15,0 0 0 4 2 N 1010,6 10 0,0
20.07.2018 22:00:00 23,0 15,1 0 0 4 2 N 1010,8 10 0,0
20.07.2018 21:00:00 24,3 15,5 0 0 4 2 N 1011,1 10 0,0
20.07.2018 20:00:00 25,1 15,1 0 0 7 4 N 1011,3 10 0,0
20.07.2018 19:00:00 26,2 14,3 0 0 7 4 N 1011,5 10 0,0
20.07.2018 18:00:00 26,8 13,9 5 3 11 6 S 1011,8 10 0,0
20.07.2018 17:00:00 26,2 13,7 9 5 11 6 SSE 1012,2 10 0,0
20.07.2018 16:00:00 26,9 14,0 11 6 18 10 SE 1012,6 10 0,0
20.07.2018 15:00:00 27,1 16,4 11 6 18 10 SE 1013,1 10 0,0
20.07.2018 14:00:00 27,0 17,2 15 8 22 12 SE 1013,4 10 0,0
20.07.2018 13:00:00 27,6 12,8 11 6 18 10 SSE 1013,5 10 0,0
20.07.2018 12:00:00 27,2 13,5 11 6 18 10 SE 1013,8 10 0,0
20.07.2018 11:00:00 26,8 14,5 11 6 22 12 SSE 1014,1 10 0,0
20.07.2018 10:00:00 26,2 15,9 13 7 18 10 SSE 1014,1 10 0,0
20.07.2018 09:00:00 25,7 17,4 8 4 11 6 SE 1014,1 10 0,0
20.07.2018 08:00:00 25,0 17,2 5 3 11 6 SE 1014,2 10 0,0
20.07.2018 07:00:00 24,3 18,0 8 4 11 6 SSE 1014,4 10 0,0
20.07.2018 06:00:00 22,9 18,4 4 2 7 4 - 1014,4 10 0,0
20.07.2018 05:00:00 19,1 16,3 0 0 4 2 N 1014,4 10 0,0
20.07.2018 04:00:00 17,1 15,3 2 1 4 2 - 1014,4 10 0,0
20.07.2018 03:00:00 17,3 13,6 0 0 7 4 N 1014,5 10 0,0
20.07.2018 02:00:00 19,4 14,2 2 1 7 4 - 1014,6 10 0,0
20.07.2018 01:00:00 20,7 14,8 4 2 4 2 NNW 1014,9 10 0,0
20.07.2018 00:00:00 21,2 15,3 2 1 7 4 - 1015,1 10 0,0
19.07.2018 23:00:00 21,9 15,7 4 2 7 4 E 1015,0 10 0,0
19.07.2018 22:00:00 24,1 13,6 0 0 4 2 N 1015,1 10 0,0
19.07.2018 21:00:00 25,7 12,2 0 0 4 2 N 1014,9 10 0,0
19.07.2018 20:00:00 26,4 12,8 4 2 7 4 SE 1014,9 10 0,0
19.07.2018 19:00:00 26,7 12,4 5 3 14 8 S 1014,8 10 0,0
19.07.2018 18:00:00 26,7 12,7 9 5 18 10 SSE 1015,2 10 0,0
19.07.2018 17:00:00 26,7 13,1 13 7 18 10 SSE 1015,6 10 0,0
19.07.2018 16:00:00 26,6 13,0 15 8 22 12 SE 1015,8 10 0,0
19.07.2018 15:00:00 26,5 12,9 18 10 25 14 SE 1016,3 10 0,0
19.07.2018 14:00:00 25,8 13,3 16 9 25 14 SE 1016,8 10 0,0
19.07.2018 13:00:00 25,2 15,5 15 8 22 12 SE 1016,9 10 0,0
19.07.2018 12:00:00 25,2 16,6 15 8 18 10 SE 1016,9 10 0,0
19.07.2018 11:00:00 24,9 17,4 13 7 25 14 SSE 1017,0 10 0,0
19.07.2018 10:00:00 24,5 17,5 16 9 18 10 SSE 1016,9 10 0,0
19.07.2018 09:00:00 24,5 18,2 15 8 18 10 SE 1016,6 10 0,0
19.07.2018 08:00:00 24,6 17,8 13 7 18 10 SE 1016,6 10 0,0
19.07.2018 07:00:00 23,6 18,5 15 8 18 10 SSE 1016,7 10 0,0
19.07.2018 06:00:00 22,8 19,2 11 6 14 8 SE 1016,6 10 0,0
19.07.2018 05:00:00 22,0 19,0 11 6 14 8 SSE 1016,4 10 0,0
19.07.2018 04:00:00 21,0 17,6 8 4 14 8 SE 1016,5 10 0,0
19.07.2018 03:00:00 21,7 17,5 4 2 14 8 - 1016,7 10 0,0
19.07.2018 02:00:00 22,6 17,3 11 6 18 10 SE 1016,5 10 0,0
19.07.2018 01:00:00 23,0 17,2 13 7 18 10 SSE 1016,3 10 0,0
19.07.2018 00:00:00 22,3 17,4 8 4 14 8 SE 1016,4 10 0,0
18.07.2018 23:00:00 22,2 15,3 5 3 11 6 SE 1016,3 10 0,0
18.07.2018 22:00:00 23,9 14,6 4 2 11 6 - 1016,3 10 0,0
18.07.2018 21:00:00 25,4 13,9 4 2 11 6 - 1016,3 10 0,0
18.07.2018 20:00:00 27,1 12,7 5 3 18 10 ESE 1016,5 10 0,0
18.07.2018 19:00:00 28,2 11,3 13 7 18 10 SE 1016,6 10 0,0
18.07.2018 18:00:00 28,5 10,2 16 9 22 12 SE 1017,1 10 0,0
18.07.2018 17:00:00 28,4 10,6 16 9 22 12 SE 1017,4 10 0,0
18.07.2018 16:00:00 28,1 11,2 16 9 22 12 SE 1018,0 10 0,0
18.07.2018 15:00:00 28,1 13,6 18 10 25 14 SE 1018,4 10 0,0
18.07.2018 14:00:00 27,6 16,6 18 10 22 12 SE 1018,8 10 0,0
18.07.2018 13:00:00 26,4 16,6 15 8 22 12 SE 1019,0 10 0,0
18.07.2018 12:00:00 26,0 17,4 16 9 22 12 SE 1019,1 10 0,0
18.07.2018 11:00:00 26,3 18,2 13 7 18 10 SSE 1019,2 10 0,0
18.07.2018 10:00:00 26,0 18,7 9 5 14 8 SE 1019,2 10 0,0
18.07.2018 09:00:00 25,9 18,1 9 5 14 8 ENE 1019,1 10 0,0
18.07.2018 08:00:00 24,8 18,3 4 2 7 4 - 1019,0 10 0,0
18.07.2018 07:00:00 23,2 16,7 8 4 11 6 N 1018,8 10 0,0
18.07.2018 06:00:00 21,5 16,5 5 3 7 4 N 1018,8 10 0,0
18.07.2018 05:00:00 19,7 16,3 5 3 11 6 N 1018,8 10 0,0
18.07.2018 04:00:00 17,4 15,7 5 3 11 6 NNW 1019,0 10 0,0
18.07.2018 03:00:00 16,6 15,0 4 2 7 4 NNW 1019,1 10 0,0
18.07.2018 02:00:00 17,7 14,8 2 1 7 4 WNW 1019,2 10 0,0
18.07.2018 01:00:00 18,1 14,4 2 1 7 4 WNW 1019,0 10 0,0
18.07.2018 00:00:00 18,9 15,0 5 3 7 4 NW 1018,8 10 0,0
17.07.2018 23:00:00 19,9 15,9 0 0 4 2 N 1018,5 10 0,0
17.07.2018 22:00:00 22,1 15,7 0 0 7 4 N 1018,4 10 0,0
17.07.2018 21:00:00 23,3 15,6 5 3 14 8 S 1018,3 10 0,0
17.07.2018 20:00:00 24,5 15,7 8 4 14 8 S 1018,2 10 0,0
17.07.2018 19:00:00 25,5 14,6 11 6 14 8 S 1018,3 10 0,0

tt = Température de l'air
td = dewpoint
ff = Vitesse du vent
fx = gusts
dd = Direction du vent
ppp = reduced air pressure
vv = visibility
rr = Quantités de précipitations

stations d'obs. à proximité